This demonstration page uses our WeatherBlox Daily Observations layout. Learn more.

Left ArrowRight Arrow

Hourly Observations for July 20, 2018

Temp ( °F °C ) Dew Point ( °F °C ) Humidity (%) Winds ( mph kmh ) Pressure ( in mb ) Visibility ( mi km ) Precip ( " mm )
12:51 am 00:51 Clear 79 26.1 64 17.8 60 60 NNW 9 15 29.78 1009 10 16.0934 N/A
1:51 am 01:51 Clear 80 26.7 63 17.2 56 56 NW 7 11 29.78 1008 10 16.0934 N/A
2:51 am 02:51 Clear 78 25.6 64 17.8 62 62 WNW 9 15 29.79 1009 10 16.0934 N/A
3:51 am 03:51 Clear 76 24.4 64 17.8 67 67 NNW 6 9 29.79 1009 10 16.0934 N/A
4:51 am 04:51 Clear 75 23.9 63 17.2 66 66 E 3 6 29.8 1009 10 16.0934 N/A
5:51 am 05:51 Sunny 74 23.3 64 17.8 71 71 S 5 7 29.85 1011 10 16.0934 N/A
6:51 am 06:51 Sunny 80 26.7 64 17.8 58 58 N N/A 29.85 1011 10 16.0934 N/A
7:51 am 07:51 Sunny 83 28.3 62 16.7 49 49 SSE 3 6 29.86 1011 10 16.0934 N/A
8:51 am 08:51 Sunny 87 30.6 62 16.7 43 43 VRB 3 6 29.86 1011 10 16.0934 N/A
9:51 am 09:51 Sunny 89 31.7 58 14.4 35 35 SSW 6 9 29.87 1012 10 16.0934 N/A
10:51 am 10:51 Sunny 94 34.4 58 14.4 30 30 VRB 3 6 29.85 1011 10 16.0934 N/A
11:51 am 11:51 Sunny 96 35.6 58 14.4 28 28 N N/A 29.82 1010 10 16.0934 N/A
12:51 pm 12:51 Sunny 101 38.3 56 13.3 22 22 NW 7 11 29.77 1008 10 16.0934 N/A
1:51 pm 13:51 Sunny 102 38.9 52 11.1 19 19 undefined N/A 29.73 1007 10 16.0934 N/A
2:51 pm 14:51 Sunny 104 40 52 11.1 18 18 W 14 22 29.7 1006 10 16.0934 N/A
3:51 pm 15:51 Sunny 105 40.6 50 10 16 16 NW 7 11 29.68 1005 10 16.0934 N/A
4:51 pm 16:51 Sunny 93 33.9 58 14.4 31 31 W 25 41 29.71 1006 10 16.0934 N/A
5:03 pm 17:03 Sunny with Nearby Thunderstorms 92 33.3 58 14.4 32 32 W 23 37 29.65 1004 10 16.0934 N/A
5:24 pm 17:24 Sunny 90 32 59 15 36 36 NW 22 35 29.68 1005 10 16.0934 N/A
5:51 pm 17:51 Sunny 91 32.8 60 15.6 35 35 WNW 21 33 29.73 1007 10 16.0934 N/A
6:51 pm 18:51 Sunny 91 32.8 63 17.2 39 39 NW 16 26 29.72 1007 10 16.0934 N/A
7:26 pm 19:26 Clear with Nearby Thunderstorms 90 32.2 64 17.8 42 42 NNW 10 17 29.71 1006 10 16.0934 N/A
7:41 pm 19:41 Clear 91 32.8 63 17.2 39 39 N 6 9 29.68 1005 10 16.0934 N/A
7:51 pm 19:51 Partly Cloudy with Nearby Thunderstorms 92 33.3 61 16.1 36 36 N 6 9 29.75 1008 10 16.0934 N/A
8:02 pm 20:02 Mostly Cloudy with Thunderstorms 91 32.8 56 13.3 31 31 N N/A 29.68 1005 10 16.0934 N/A
8:15 pm 20:15 Partly Cloudy 91 32.8 57 13.9 32 32 S 8 13 29.68 1005 10 16.0934 N/A
8:51 pm 20:51 Clear 91 32.8 62 16.7 38 38 ESE 5 7 29.81 1009 10 16.0934 N/A
9:51 pm 21:51 Cloudy 89 31.7 57 13.9 34 34 W 12 19 29.79 1009 10 16.0934 N/A
10:51 pm 22:51 Clear 85 29.4 61 16.1 45 45 ESE 7 11 29.78 1009 10 16.0934 N/A
11:51 pm 23:51 Clear 83 28.3 64 17.8 53 53 SSW 9 15 29.8 1009 10 16.0934 N/A

Powered by AerisWeather